Weather reports worldwide

Advertisment
Cottbus, Germany (10496): temperature & dewpoint: 11.07.2018 15:00:00 - 17.07.2018 15:00:00 (CEST)Cottbus, Germany (10496): temperature 5cm & temperature -5cm: 11.07.2018 15:00:00 - 17.07.2018 15:00:00 (CEST)Cottbus, Germany (10496): temperature -20cm & temperature -100cm: 11.07.2018 15:00:00 - 17.07.2018 15:00:00 (CEST)Cottbus, Germany (10496): wind speed & gusts: 11.07.2018 15:00:00 - 17.07.2018 15:00:00 (CEST)Cottbus, Germany (10496): wind direction: 11.07.2018 15:00:00 - 17.07.2018 15:00:00 (CEST)Cottbus, Germany (10496): reduced air pressure: 11.07.2018 15:00:00 - 17.07.2018 15:00:00 (CEST)Cottbus, Germany (10496): visibility: 11.07.2018 15:00:00 - 17.07.2018 15:00:00 (CEST)Cottbus, Germany (10496): sunshine duration: 11.07.2018 15:00:00 - 17.07.2018 15:00:00 (CEST)Cottbus, Germany (10496): precipitation: 11.07.2018 15:00:00 - 17.07.2018 15:00:00 (CEST)
Date & Time tt [°C] td [°C] tt 5cm [°C] tt -5cm [°C] tt -20cm [°C] tt -100cm [°C] ff [km/h] ff [kn] fx [km/h] fx [kn] dd ppp [hPa] vv [km] sd [min] rr [mm]
17.07.2018 15:00:00 26,9 12,8 28,8 34,9 27,5 21,2 14 7 37 20 N 1009,9 43 33 0,0
17.07.2018 14:00:00 26,8 12,6 30,9 36,4 26,3 21,1 17 9 36 19 NW 1010,1 39 58 0,0
17.07.2018 13:00:00 26,3 13,4 30,5 34,3 25,1 21,1 14 7 28 15 WNW 1010,5 36 59 0,0
17.07.2018 12:00:00 24,9 14,1 29,9 31,0 24,2 21,1 9 5 23 12 NW 1010,8 29 57 0,0
17.07.2018 11:00:00 22,2 14,9 25,0 25,6 23,9 21,1 8 4 18 10 W 1011,0 32 6 0,0
17.07.2018 10:00:00 20,2 15,0 21,8 24,7 23,7 21,0 7 4 17 9 W 1011,2 23 17 0,0
17.07.2018 09:00:00 19,5 15,7 21,5 22,6 23,7 21,0 9 5 16 8 W 1011,3 24 0 0,0
17.07.2018 08:00:00 18,0 15,2 17,7 21,8 23,8 21,0 6 3 10 5 WSW 1011,4 22 0 0,0
17.07.2018 07:00:00 17,6 14,7 17,9 21,5 24,1 21,0 6 3 10 5 SW 1011,4 26 0 0,0
17.07.2018 06:00:00 17,2 14,6 17,0 21,4 24,5 20,9 2 1 7 4 N 1011,5 29 0 0,0
17.07.2018 05:00:00 17,3 14,4 17,0 21,5 24,9 20,9 3 2 8 4 NW 1011,2 30 0 0,0
17.07.2018 04:00:00 17,3 14,6 16,9 22,0 25,3 20,9 3 2 5 3 NNW 1011,0 25 0 0,0
17.07.2018 03:00:00 17,2 14,5 17,2 22,4 25,8 20,8 0 0 5 3 N 1011,2 25 0 0,0
17.07.2018 02:00:00 16,4 14,2 15,6 22,6 26,4 20,8 4 2 5 3 SW 1011,4 24 0 0,0
17.07.2018 01:00:00 17,0 14,3 15,9 23,5 27,1 20,8 3 1 8 5 WNW 1011,5 22 0 0,0
17.07.2018 00:00:00 18,0 14,5 16,4 24,6 27,8 20,8 4 2 6 4 N 1011,5 36 0 0,0
16.07.2018 23:00:00 20,3 14,4 18,1 26,0 28,5 20,8 4 2 21 12 NE 1011,3 42 0 0,0
16.07.2018 22:00:00 22,9 13,6 21,8 27,7 29,3 20,7 9 5 21 11 NE 1011,3 49 0 0,0
16.07.2018 21:00:00 22,8 13,5 20,1 29,8 29,8 20,7 4 2 11 6 NW 1010,7 65 41 0,0
16.07.2018 20:00:00 26,5 11,1 27,2 32,8 30,1 20,7 5 3 16 9 N 1010,4 70 60 0,0
16.07.2018 19:00:00 27,2 10,5 29,8 34,9 30,1 20,7 9 5 19 11 NNE 1010,6 70 60 0,0
16.07.2018 18:00:00 27,3 11,4 30,6 36,0 29,8 20,7 5 3 17 9 N 1010,9 55 47 0,0
16.07.2018 17:00:00 27,1 11,0 31,6 38,0 29,2 20,7 6 4 23 12 NE 1011,0 70 54 0,0
16.07.2018 16:00:00 27,2 11,6 32,1 38,4 28,2 20,7 6 4 23 12 NE 1011,5 63 55 0,0
16.07.2018 15:00:00 26,7 10,7 32,9 37,4 27,2 20,7 6 4 21 12 N 1012,1 34 50 0,0
16.07.2018 14:00:00 25,1 10,5 27,9 35,4 26,3 20,7 5 3 16 9 N 1013,1 49 38 0,0
16.07.2018 13:00:00 23,7 11,5 25,6 34,2 25,1 20,6 6 3 18 10 NNW 1013,7 44 41 0,0
16.07.2018 12:00:00 24,2 12,2 29,5 32,9 23,9 20,6 9 5 18 10 NW 1014,1 33 40 0,0
16.07.2018 11:00:00 23,0 12,6 26,2 31,3 22,8 20,6 6 4 14 7 N 1014,3 43 57 0,0
16.07.2018 10:00:00 22,2 13,1 26,5 27,4 22,0 20,6 3 2 10 6 NNW 1014,6 33 60 0,0
16.07.2018 09:00:00 20,0 13,6 23,2 24,0 21,5 20,5 4 2 8 4 SW 1014,8 27 60 0,0
16.07.2018 08:00:00 18,0 13,4 19,8 20,3 21,4 20,5 3 1 8 5 NW 1015,0 27 60 0,0
16.07.2018 07:00:00 15,1 11,1 16,4 17,9 21,7 20,5 0 0 5 3 N 1015,1 21 57 0,0
16.07.2018 06:00:00 11,9 11,0 12,0 17,1 22,2 20,5 3 2 4 2 SW 1015,5 14 0 0,0
16.07.2018 05:00:00 11,4 10,5 10,2 17,4 22,8 20,4 2 1 4 2 ENE 1015,5 15 0 0,0
16.07.2018 04:00:00 12,0 10,9 10,8 18,1 23,4 20,4 3 2 7 4 SW 1015,7 15 0 0,0
16.07.2018 03:00:00 12,4 11,1 11,4 18,9 24,1 20,4 2 1 6 3 NW 1015,6 19 0 0,0
16.07.2018 02:00:00 13,2 11,5 11,9 19,8 24,8 20,4 5 3 9 5 NE 1015,5 27 0 0,0
16.07.2018 01:00:00 13,4 11,7 12,3 20,8 25,6 20,4 0 0 2 1 N 1015,6 24 0 0,0
16.07.2018 00:00:00 14,5 12,0 13,0 22,1 26,4 20,3 0 0 5 3 N 1015,4 27 0 0,0
15.07.2018 23:00:00 15,4 12,3 14,2 23,6 27,3 20,3 3 1 6 4 WSW 1015,5 27 0 0,0
15.07.2018 22:00:00 17,8 12,5 15,9 25,6 28,1 20,3 4 2 10 5 N 1015,3 38 0 0,0
15.07.2018 21:00:00 22,3 10,0 20,2 28,1 28,8 20,3 6 4 13 7 N 1014,8 48 43 0,0
15.07.2018 20:00:00 24,1 8,6 25,4 31,3 29,2 20,3 11 6 19 11 N 1014,5 54 60 0,0
15.07.2018 19:00:00 25,0 8,1 28,3 33,9 29,2 20,3 6 3 19 10 NNW 1014,4 53 60 0,0
15.07.2018 18:00:00 24,7 8,2 28,4 35,9 29,0 20,3 8 5 21 11 NNE 1014,7 44 60 0,0
15.07.2018 17:00:00 24,9 8,7 29,4 37,4 28,4 20,3 9 5 20 11 N 1014,9 49 60 0,0
15.07.2018 16:00:00 24,4 10,1 29,9 38,2 27,4 20,3 9 5 24 13 NW 1015,5 36 60 0,0
15.07.2018 15:00:00 24,4 11,2 31,3 38,1 26,2 20,3 8 4 21 12 NNE 1016,0 36 60 0,0
15.07.2018 14:00:00 23,7 11,4 28,4 36,9 24,8 20,3 9 5 21 11 W 1016,5 39 58 0,0
15.07.2018 13:00:00 22,6 11,7 28,5 35,3 23,3 20,3 8 4 21 11 WNW 1017,3 32 60 0,0
15.07.2018 12:00:00 21,1 11,2 25,6 32,2 22,0 20,3 8 4 18 10 W 1017,5 40 60 0,0
15.07.2018 11:00:00 21,0 12,1 25,3 28,9 20,8 20,3 6 3 16 9 NNE 1017,7 44 60 0,0
15.07.2018 10:00:00 19,1 11,2 23,2 25,0 20,0 20,3 7 4 14 8 N 1018,0 61 60 0,0
15.07.2018 09:00:00 17,9 10,2 20,7 21,5 19,6 20,3 6 4 14 8 NNE 1018,2 49 55 0,0
15.07.2018 08:00:00 17,0 11,5 19,0 18,7 19,4 20,3 3 2 6 4 NNE 1018,0 36 21 0,0
15.07.2018 07:00:00 14,6 12,1 14,5 16,6 19,6 20,3 2 1 4 2 NE 1018,1 22 16 0,0
15.07.2018 06:00:00 12,4 11,4 12,4 15,3 20,0 20,3 2 1 4 2 SSE 1018,1 14 0 0,0
15.07.2018 05:00:00 11,8 10,9 11,3 15,4 20,4 20,3 0 0 3 2 N 1018,1 14 0 0,0
15.07.2018 04:00:00 11,9 11,1 10,6 15,9 21,0 20,2 0 0 4 2 N 1017,9 13 0 0,0
15.07.2018 03:00:00 12,7 11,5 11,3 16,7 21,6 20,2 2 1 6 3 WNW 1018,0 14 0 0,0
15.07.2018 02:00:00 14,4 12,1 12,5 17,6 22,1 20,2 4 2 11 6 NE 1017,9 24 0 0,0
15.07.2018 01:00:00 16,5 12,2 14,4 18,5 22,8 20,2 6 3 16 9 NNE 1017,7 30 0 0,0
15.07.2018 00:00:00 18,2 12,2 16,6 19,4 23,4 20,2 10 5 17 9 NNE 1017,4 30 0 0,0
14.07.2018 23:00:00 17,7 11,9 14,8 20,5 24,2 20,2 8 4 13 7 N 1017,2 30 0 0,0
14.07.2018 22:00:00 17,8 11,7 15,6 22,2 24,9 20,2 4 2 11 6 NW 1017,1 18 0 0,0
14.07.2018 21:00:00 22,0 10,2 19,7 24,4 25,5 20,2 6 3 20 11 NNW 1016,6 43 44 0,0
14.07.2018 20:00:00 23,6 10,4 24,1 27,6 25,7 20,2 11 6 24 13 NW 1016,5 40 60 0,0
14.07.2018 19:00:00 24,8 10,8 26,3 30,1 25,6 20,2 10 5 26 14 NW 1016,1 29 60 0,0
14.07.2018 18:00:00 25,4 10,7 27,4 31,8 25,2 20,3 12 6 26 14 NNW 1016,2 47 60 0,0
14.07.2018 17:00:00 25,4 10,5 27,9 32,8 24,4 20,3 14 8 29 16 NW 1016,4 31 60 0,0
14.07.2018 16:00:00 25,7 11,4 29,2 31,7 23,5 20,3 13 7 31 17 NW 1016,7 33 50 0,0
14.07.2018 15:00:00 25,3 12,2 29,1 30,6 22,7 20,3 11 6 27 15 WNW 1017,2 27 60 0,0
14.07.2018 14:00:00 24,0 12,9 27,5 26,9 22,2 20,3 13 7 27 15 NW 1017,8 27 22 0,0
14.07.2018 13:00:00 22,5 14,0 23,4 26,3 21,7 20,3 9 5 23 13 W 1018,3 22 20 0,0
14.07.2018 12:00:00 22,4 15,2 24,0 27,1 20,8 20,3 10 5 23 12 WNW 1018,5 22 46 0,0
14.07.2018 11:00:00 22,1 14,5 25,2 26,0 19,9 20,3 10 5 21 11 WNW 1018,6 21 57 0,0
14.07.2018 10:00:00 20,1 14,7 23,2 22,7 19,2 20,3 8 4 15 8 W 1018,9 21 39 0,0
14.07.2018 09:00:00 19,3 14,9 21,7 20,1 18,8 20,3 8 4 17 9 WNW 1018,7 17 37 0,0
14.07.2018 08:00:00 17,7 14,0 19,2 18,2 18,6 20,3 8 4 17 9 WNW 1018,4 14 60 0,0
14.07.2018 07:00:00 16,1 13,4 15,5 15,9 18,7 20,3 6 3 12 6 W 1018,2 13 49 0,0
14.07.2018 06:00:00 13,4 12,2 12,2 14,9 19,0 20,3 6 3 9 5 SW 1018,1 15 0 0,0
14.07.2018 05:00:00 12,7 11,8 11,5 15,1 19,4 20,3 5 3 8 4 WSW 1018,1 15 0 0,0
14.07.2018 04:00:00 12,9 12,0 12,0 15,6 19,8 20,3 4 2 6 3 SW 1017,9 12 0 0,0
14.07.2018 03:00:00 13,5 12,5 12,2 16,1 20,2 20,3 1 1 6 4 S 1017,9 18 0 0,0
14.07.2018 02:00:00 14,5 12,9 13,1 16,7 20,7 20,3 4 2 6 4 SW 1017,7 25 0 0,0
14.07.2018 01:00:00 14,5 13,0 13,4 17,3 21,2 20,4 5 3 9 5 SSW 1017,7 22 0 0,0
14.07.2018 00:00:00 15,5 13,1 14,4 18,1 21,7 20,4 6 4 9 5 WSW 1017,7 27 0 0,0
13.07.2018 23:00:00 16,5 13,6 14,8 19,0 22,2 20,4 3 2 6 3 SSW 1017,3 20 0 0,0
13.07.2018 22:00:00 19,1 13,0 16,7 20,0 22,8 20,4 4 2 24 13 NE 1017,4 37 0 0,0
13.07.2018 21:00:00 21,5 12,7 20,7 21,4 23,3 20,4 17 9 37 20 NNE 1017,2 40 16 0,0
13.07.2018 20:00:00 25,6 12,2 25,3 23,9 23,5 20,4 9 5 21 12 NW 1015,6 38 60 0,0
13.07.2018 19:00:00 26,5 11,7 27,2 25,4 23,5 20,4 9 5 29 16 NW 1015,4 36 60 0,0
13.07.2018 18:00:00 26,4 11,6 27,4 26,9 23,2 20,5 15 8 34 18 NW 1015,5 27 60 0,0
13.07.2018 17:00:00 26,5 9,6 28,4 27,6 22,8 20,5 16 9 32 17 NNW 1015,7 29 60 0,0
13.07.2018 16:00:00 26,2 12,5 28,7 28,1 22,1 20,5 14 8 26 14 WNW 1015,8 29 59 0,0
13.07.2018 15:00:00 24,1 13,2 26,3 24,7 21,7 20,5 9 5 23 12 WNW 1016,2 35 2 0,0
13.07.2018 14:00:00 23,6 15,3 25,0 25,2 21,3 20,6 8 5 23 13 W 1016,4 25 1 0,0
13.07.2018 13:00:00 23,0 13,7 24,1 26,4 20,5 20,6 13 7 36 20 WNW 1016,9 27 25 0,0
13.07.2018 12:00:00 23,1 16,0 26,6 24,7 19,7 20,6 8 5 30 16 W 1016,7 22 34 0,0
13.07.2018 11:00:00 21,7 15,0 22,7 22,2 19,1 20,7 11 6 23 12 W 1016,4 25 14 0,0
13.07.2018 10:00:00 19,9 16,0 20,2 20,8 18,6 20,7 6 3 20 11 W 1016,5 21 0 0,0
13.07.2018 09:00:00 18,3 16,3 18,2 19,0 18,3 20,7 6 3 15 8 W 1016,5 16 0 0,0
13.07.2018 08:00:00 17,5 15,3 17,2 18,1 18,1 20,7 7 4 18 10 W 1016,3 16 30 0,0
13.07.2018 07:00:00 15,8 14,7 15,3 16,4 18,2 20,8 3 1 9 5 W 1016,1 11 2 0,0
13.07.2018 06:00:00 15,8 14,7 15,1 16,2 18,3 20,8 4 2 12 7 WNW 1015,6 13 0 0,0
13.07.2018 05:00:00 16,1 14,9 15,4 16,5 18,4 20,8 8 4 15 8 WNW 1015,2 15 0 0,0
13.07.2018 04:00:00 16,2 15,0 15,7 16,5 18,5 20,8 6 3 15 8 WNW 1014,8 16 0 0,0
13.07.2018 03:00:00 16,0 15,0 15,4 16,6 18,6 20,8 5 3 9 5 W 1014,8 15 0 0,0
13.07.2018 02:00:00 15,6 15,0 15,2 16,6 18,7 20,9 4 2 10 5 WSW 1014,8 11 0 0,0
13.07.2018 01:00:00 16,3 15,4 15,9 17,0 18,8 20,9 5 3 15 8 WNW 1014,9 13 0 0,4
13.07.2018 00:00:00 16,1 15,4 16,0 17,0 18,9 20,9 4 2 10 5 W 1014,7 4,2 0 0,1
12.07.2018 23:00:00 16,1 15,2 15,8 17,0 19,1 20,9 7 4 16 9 WNW 1014,5 14 0 0,0
12.07.2018 22:00:00 16,2 15,0 15,7 17,2 19,3 21,0 8 4 18 10 WNW 1014,1 19 0 0,0
12.07.2018 21:00:00 16,2 14,8 15,9 17,6 19,4 21,0 6 4 21 11 WNW 1013,4 22 0 0,0
12.07.2018 20:00:00 16,0 14,7 15,7 17,7 19,5 21,0 9 5 23 12 WNW 1013,0 22 0 0,1
12.07.2018 19:00:00 15,7 14,6 15,5 17,9 19,7 21,0 10 5 31 17 W 1012,7 17 0 2,8
12.07.2018 18:00:00 16,5 15,4 16,4 18,6 19,8 21,1 10 5 31 17 WNW 1012,7 10 0 0,3
12.07.2018 17:00:00 17,0 15,9 17,0 19,1 19,9 21,1 13 7 42 23 WNW 1012,3 14 0 0,5
12.07.2018 16:00:00 16,8 16,0 17,1 19,5 19,8 21,1 14 7 24 13 NW 1012,0 2,7 0 0,6
12.07.2018 15:00:00 17,1 15,2 17,4 21,1 19,4 21,1 9 5 19 10 WNW 1011,7 15 3 0,0
12.07.2018 14:00:00 16,8 14,2 18,0 20,7 18,8 21,2 5 3 16 9 N 1011,3 21 0 0,0
12.07.2018 13:00:00 16,0 14,8 16,5 18,7 18,6 21,2 7 4 21 12 WSW 1011,0 13 0 0,0
12.07.2018 12:00:00 14,2 13,4 14,3 16,7 18,6 21,2 10 6 37 20 S 1011,2 4,8 0 0,6
12.07.2018 11:00:00 14,0 13,0 14,1 16,7 18,6 21,2 16 8 31 17 S 1011,5 2,7 0 0,9
12.07.2018 10:00:00 13,8 12,9 14,1 16,3 18,7 21,2 16 9 30 16 SSW 1011,8 7 0 2,6
12.07.2018 09:00:00 13,3 12,6 13,4 15,7 18,9 21,2 14 7 27 14 SSW 1012,1 3,5 0 1,4
12.07.2018 08:00:00 13,6 12,9 13,6 15,8 19,1 21,2 15 8 26 14 SW 1012,3 4,4 0 2,4
12.07.2018 07:00:00 14,0 12,9 13,8 16,1 19,4 21,3 10 6 16 9 SW 1012,5 7 0 0,3
12.07.2018 06:00:00 14,5 12,4 14,2 16,2 19,6 21,3 9 5 15 8 SW 1012,8 16 0 0,0
12.07.2018 05:00:00 14,7 12,1 14,6 16,4 19,9 21,3 8 5 13 7 SW 1013,1 21 0 0,0
12.07.2018 04:00:00 14,9 12,3 14,5 16,6 20,2 21,3 4 2 12 7 W 1013,2 24 0 0,0
12.07.2018 03:00:00 15,1 12,1 14,8 16,9 20,5 21,3 7 4 13 7 SW 1013,1 23 0 0,0
12.07.2018 02:00:00 15,2 11,9 14,7 17,1 20,9 21,3 6 4 10 5 SW 1013,3 23 0 0,0
12.07.2018 01:00:00 15,6 11,8 15,2 17,5 21,3 21,4 7 4 13 7 WSW 1013,5 25 0 0,0
12.07.2018 00:00:00 15,9 11,8 15,5 18,1 21,7 21,4 7 4 10 5 SSW 1013,6 24 0 0,0
11.07.2018 23:00:00 16,3 12,0 15,5 18,8 22,2 21,4 5 3 11 6 SW 1013,8 24 0 0,0
11.07.2018 22:00:00 16,9 11,5 15,7 19,3 22,7 21,4 6 4 10 5 SSW 1013,7 26 0 0,0
11.07.2018 21:00:00 18,2 11,4 17,7 20,4 23,1 21,5 6 4 26 14 WSW 1013,5 29 0 0,0
11.07.2018 20:00:00 18,9 14,7 18,8 21,8 23,5 21,5 8 4 12 6 ENE 1013,0 12 0 0,1
11.07.2018 19:00:00 20,6 11,3 20,4 23,4 23,8 21,5 5 3 12 7 SW 1012,8 25 0 0,0
11.07.2018 18:00:00 21,9 10,8 22,7 26,9 23,5 21,5 7 4 16 9 SSW 1012,7 25 41 0,0
11.07.2018 17:00:00 22,3 11,1 24,9 27,7 23,0 21,6 9 5 15 8 S 1012,7 25 36 0,0
11.07.2018 16:00:00 21,6 9,5 25,7 28,3 22,4 21,6 6 3 12 7 S 1013,0 21 32 0,0
11.07.2018 15:00:00 20,2 11,4 22,5 24,9 21,9 21,6 3 2 12 6 NNW 1013,6 23 2 0,0

tt = temperature
td = dewpoint
tt 5cm = temperature 5cm
tt -5cm = temperature -5cm
tt -20cm = temperature -20cm
tt -100cm = temperature -100cm
ff = wind speed
fx = gusts
dd = wind direction
ppp = reduced air pressure
vv = visibility
sd = sunshine duration
rr = precipitation

Next stations